Location: Bastelaar
(51.0950°N, 3.8602°E)
Time: 15:55:41
(UTC+00:00)

Cosmos 2344 - Pass Details

Date: 18 November 2025
Orbit: 1197 x 3045 km, 63.3° (Epoch: 12 December)

Event Time Altitude Azimuth Distance (km) Brightness Sun altitude
Rises 18:21:34 0° 314° (NW) 4,176 6.9 -23.0°
Reaches altitude 10° 18:24:05 10° 315° (NW) 3,282 6.3 -23.4°
Maximum altitude 18:31:54 89° 45° (NE) 1,506 3.8 -24.6°
Enters shadow 18:38:34 25° 137° (SE) 3,062 5.2 -25.7°
